Tracking 22836 objects as of 16-Apr-2021
HD Live streaming from Space Station
objects crossing your sky now

STARLINK-1617

Track STARLINK-1617 now!
10-day predictions
STARLINK-1617 is classified as:


NORAD ID: 46350
Int'l Code: 2020-062AB
Perigee: 554.0 km
Apogee: 554.7 km
Inclination: 53.1 °
Period: 95.6 minutes
Semi major axis: 6925 km
RCS: Unknown
Launch date: September 3, 2020
Source: United States (US)
Launch site: AIR FORCE EASTERN TEST RANGE (AFETR)
aabbcc
Your satellite tracking list
Your tracking list is empty




NASA's NSSDC Master Catalog

Two Line Element Set (TLE):
1 46350U 20062AB  21105.77947335 -.00001377  00000-0 -73616-4 0  9999
2 46350  53.0574 127.3491 0000530 114.7121 245.3923 15.06391289 34689
Source of the keplerian elements: AFSPC